Weather History for Athens, GA

Change the Weather History Date:

Thursday, October 4, 2012

  Actual Average Record
Temperature  
Mean Temperature 71 °F 67 °F  
Max Temperature 82 °F 78 °F 96 °F (1954)
Min Temperature 59 °F 56 °F 36 °F (1987)
Degree Days  
Heating Degree Days 0 2  
Month to date heating degree days 0 7  
Since 1 July heating degree days 2 17  
Cooling Degree Days 6 4  
Month to date cooling degree days 19 16  
Year to date cooling degree days 1947 1831  
Growing Degree Days 21 (Base 50)    
Moisture  
Dew Point 60 °F    
Average Humidity 70    
Maximum Humidity 100    
Minimum Humidity 39    
Precipitation  
Precipitation 0.00 in 0.14 in 4.23 in (1995)
Month to date precipitation 1.79 0.55  
Year to date precipitation 30.40 35.78  
Snow  
Snow 0.00 in 0.00 in 0.00 in (2002)
Month to date snowfall 0.0  
Since 1 July snowfall 0.0  
Since 1 September snowfall 0.0  
Snow Depth -    
Sea Level Pressure  
Sea Level Pressure 30.23 in    
Wind  
Wind Speed 1 mph (NW)    
Max Wind Speed 9 mph    
Max Gust Speed 13 mph    
Visibility 4 miles    
Events Fog    
T = Trace of Precipitation, MM = Missing Value Source: NWS Daily Summary

Daily Weather History Graph

Daily Weather History Graph

Search for Another Location

Airport:

Trip Planner

Search our weather history database for the weather conditions in past years. The results will help you decide how hot, cold, wet, or windy it might be!

Date:

Astronomy

Oct. 04, 2012 Rise Set
Actual Time 7:30 AM EDT 7:12 PM EDT
Civil Twilight 7:05 AM EDT 7:37 PM EDT
Nautical Twilight 6:36 AM EDT 8:06 PM EDT
Astronomical Twilight 6:07 AM EDT 8:35 PM EDT
Moon 10:00 PM EDT (10/4) 11:34 AM EDT (10/4)
Length of Visible Light 12h 32m
Length of Day
11h 42m
Waning Gibbous, 82% of the Moon is Illuminated
Oct 4
Waning Gibbous
Oct 8
Last Quarter
Oct 15
New
Oct 21
First Quarter
Oct 29
Full

Hourly Weather History & Observations

Time (EDT) Temp. Heat Index Dew Point Humidity Pressure Visibility Wind Dir Wind Speed Gust Speed Precip Events Conditions
12:51 AM 63.0 °F - 62.1 °F 97% 30.21 in 5.0 mi Calm Calm - N/A   Clear
1:14 AM 62.6 °F - 60.8 °F 94% 30.21 in 2.5 mi Calm Calm - N/A   Partly Cloudy
1:25 AM 62.6 °F - 62.6 °F 100% 30.21 in 4.0 mi Calm Calm - N/A   Clear
1:48 AM 62.6 °F - 60.8 °F 94% 30.21 in 2.0 mi Calm Calm - N/A   Clear
1:51 AM 62.1 °F - 61.0 °F 96% 30.20 in 2.0 mi Calm Calm - N/A   Clear
2:05 AM 62.6 °F - 62.6 °F 100% 30.21 in 4.0 mi Calm Calm - N/A   Clear
2:20 AM 62.6 °F - 62.6 °F 100% 30.22 in 2.5 mi Calm Calm - N/A   Clear
2:32 AM 60.8 °F - 60.8 °F 100% 30.22 in 3.0 mi Calm Calm - N/A   Partly Cloudy
2:47 AM 62.6 °F - 62.6 °F 100% 30.21 in 3.0 mi Calm Calm - N/A   Mostly Cloudy
2:51 AM 62.6 °F - 62.6 °F 100% 30.21 in 3.0 mi Calm Calm - N/A   Mostly Cloudy
3:01 AM 62.6 °F - 62.6 °F 100% 30.21 in 2.5 mi Calm Calm - N/A   Mostly Cloudy
3:14 AM 62.6 °F - 60.8 °F 94% 30.21 in 2.5 mi Calm Calm - N/A   Partly Cloudy
3:40 AM 62.6 °F - 60.8 °F 94% 30.21 in 4.0 mi Calm Calm - N/A   Clear
3:51 AM 62.1 °F - 62.1 °F 100% 30.21 in 4.0 mi Calm Calm - N/A   Clear
4:51 AM 62.1 °F - 61.0 °F 96% 30.21 in 3.0 mi Calm Calm - N/A   Clear
5:00 AM 62.6 °F - 60.8 °F 94% 30.22 in 2.5 mi Calm Calm - N/A   Clear
5:26 AM 60.8 °F - 60.8 °F 100% 30.23 in 3.0 mi Calm Calm - N/A   Mostly Cloudy
5:43 AM 62.6 °F - 62.6 °F 100% 30.23 in 2.5 mi Calm Calm - N/A   Mostly Cloudy
5:51 AM 62.1 °F - 61.0 °F 96% 30.22 in 3.0 mi Calm Calm - N/A   Mostly Cloudy
5:59 AM 62.6 °F - 60.8 °F 94% 30.24 in 3.0 mi Calm Calm - N/A   Partly Cloudy
6:07 AM 62.6 °F - 62.6 °F 100% 30.24 in 2.5 mi Calm Calm - N/A   Partly Cloudy
6:21 AM 60.8 °F - 60.8 °F 100% 30.24 in 1.2 mi Calm Calm - N/A   Clear
6:35 AM 60.8 °F - 60.8 °F 100% 30.25 in 0.8 mi Calm Calm - N/A   Clear
6:41 AM 60.8 °F - 60.8 °F 100% 30.25 in 1.5 mi Calm Calm - N/A   Clear
6:51 AM 61.0 °F - 61.0 °F 100% 30.25 in 2.5 mi Calm Calm - N/A   Clear
7:04 AM 60.8 °F - 60.8 °F 100% 30.25 in 1.2 mi Calm Calm - N/A   Clear
7:13 AM 60.8 °F - 60.8 °F 100% 30.25 in 1.8 mi Calm Calm - N/A   Clear
7:35 AM 60.8 °F - 60.8 °F 100% 30.25 in 0.8 mi Calm Calm - N/A   Clear
7:47 AM 60.8 °F - 60.8 °F 100% 30.25 in 0.2 mi Calm Calm - N/A Fog Fog
7:51 AM 60.1 °F - 60.1 °F 100% 30.25 in 0.2 mi Calm Calm - N/A Fog Fog
7:56 AM 60.8 °F - 60.8 °F 100% 30.25 in 1.0 mi NW 3.5 mph - N/A   Clear
8:16 AM 60.8 °F - 60.8 °F 100% 30.26 in 1.2 mi Calm Calm - N/A   Scattered Clouds
8:21 AM 60.8 °F - 60.8 °F 100% 30.26 in 0.8 mi Calm Calm - N/A   Mist
8:28 AM 60.8 °F - 60.8 °F 100% 30.26 in 0.2 mi Calm Calm - N/A Fog Fog
8:51 AM 62.1 °F - 62.1 °F 100% 30.26 in 1.0 mi WNW 3.5 mph - N/A   Mist
8:56 AM 62.6 °F - 62.6 °F 100% 30.26 in 1.5 mi Calm Calm - N/A   Scattered Clouds
9:08 AM 62.6 °F - 62.6 °F 100% 30.27 in 2.5 mi NW 3.5 mph - N/A   Partly Cloudy
9:25 AM 62.6 °F - 62.6 °F 100% 30.27 in 3.0 mi Calm Calm - N/A   Clear
9:51 AM 68.0 °F - 63.0 °F 84% 30.27 in 3.0 mi WNW 3.5 mph - N/A   Haze
10:51 AM 72.0 °F - 61.0 °F 68% 30.27 in 6.0 mi Calm Calm - N/A   Haze
11:51 AM 75.2 °F - 60.8 °F 61% 30.28 in 6.0 mi Variable 5.8 mph - N/A   Haze
12:51 PM 78.1 °F - 57.0 °F 48% 30.25 in 7.0 mi Calm Calm - N/A   Clear
1:51 PM 80.1 °F 80.1 °F 55.0 °F 42% 30.23 in 8.0 mi NW 4.6 mph - N/A   Clear
2:51 PM 80.1 °F 80.1 °F 55.0 °F 42% 30.21 in 7.0 mi Calm Calm - N/A   Clear
3:51 PM 81.0 °F 80.8 °F 55.9 °F 42% 30.20 in 7.0 mi Variable 3.5 mph - N/A   Clear
4:51 PM 80.1 °F 80.0 °F 54.0 °F 40% 30.19 in 6.0 mi Calm Calm - N/A   Haze
5:51 PM 80.6 °F 80.3 °F 53.6 °F 39% 30.19 in 7.0 mi North 3.5 mph - N/A   Clear
6:51 PM 75.0 °F - 57.0 °F 53% 30.18 in 7.0 mi Calm Calm - N/A   Clear
7:51 PM 68.0 °F - 59.0 °F 73% 30.19 in 8.0 mi Calm Calm - N/A   Clear
8:51 PM 66.9 °F - 57.0 °F 70% 30.20 in 8.0 mi Calm Calm - N/A   Clear
9:51 PM 62.6 °F - 60.8 °F 94% 30.22 in 7.0 mi Calm Calm - N/A   Clear
10:51 PM 60.8 °F - 57.2 °F 88% 30.23 in 7.0 mi Calm Calm - N/A   Clear
11:51 PM 61.0 °F - 59.0 °F 93% 30.22 in 6.0 mi Calm Calm - N/A   Clear